Overview Statistics Trail Chart Weather Telemetry Raw packets
 

This is the latest recevied weather packets stored in our database for station/object F5TND-14. If no packets are shown the sender has not sent any weather packets the latest 10 day(s).

<< 34 35 36 37 38 39 40 >>
Time Temp. Humidity Pressure Rain* Wind** Luminosity Snow
1788045437 22.22° C 70% 1018.4 hPa - - - -
1788044825 22.78° C 68% 1018.5 hPa - - - -
1788044225 22.78° C 68% 1018.6 hPa - - - -
1788043625 22.78° C 70% 1018.6 hPa - - - -
1788043025 22.78° C 70% 1018.7 hPa - - - -
1788042425 22.22° C 71% 1018.7 hPa - - - -
1788041825 21.67° C 75% 1018.6 hPa - - - -
1788041225 20.56° C 80% 1018.4 hPa - - - -
1788040625 20.56° C 80% 1018.4 hPa - - - -
1788040026 20° C 81% 1018.5 hPa - - - -
1788039443 20.56° C 81% 1018.4 hPa - - - -
1788038843 20° C 81% 1018.4 hPa - - - -
1788038243 20° C 82% 1018.5 hPa - - - -
1788037643 20° C 81% 1018.5 hPa - - - -
1788037042 20° C 81% 1018.6 hPa - - - -
1788036442 20° C 81% 1018.5 hPa - - - -
1788035843 20.56° C 81% 1018.5 hPa - - - -
1788035242 20.56° C 80% 1018.4 hPa - - - -
1788034642 20.56° C 80% 1018.4 hPa - - - -
1788034041 20.56° C 80% 1018.3 hPa - - - -
1788033441 20.56° C 80% 1018.2 hPa - - - -
1788032841 20.56° C 80% 1018.3 hPa - - - -
1788032241 20.56° C 79% 1018.1 hPa - - - -
1788031640 20.56° C 78% 1017.9 hPa - - - -
1788031041 20.56° C 78% 1017.9 hPa - - - -

* Rain since midnight (hover to see other rain measurements)
** Current wind speed in m/s (hover to see current wind gust speed)